GW2669 Weather Reports


Display with metric or nautical units.
time (UTC)temp
F
wind
direction
speed
MPH
gust
MPH
rain 1hr
in
rain 24hr
in
rain mn
in
humidity
%
barometer
mb
20260831010106 93 93 9.0 19.0 0.00 0.00 0.00 33 1011.5
20260831004606 93 87 4.0 9.0 0.00 0.00 0.00 30 1011.4
20260831003101 95 95 4.0 9.0 0.00 0.00 0.00 30 1011.6
20260831001633 96 83 5.0 10.0 0.00 0.00 0.00 29 1011.2
20260831000110 97 88 5.0 9.0 0.00 0.00 0.00 28 1011.4
20260830234611 98 94 5.0 12.0 0.00 0.00 0.00 27 1011.3
20260830233130 98 86 8.0 11.0 0.00 0.00 0.00 24 1011.4
20260830231559 99 103 5.0 10.0 0.00 0.00 0.00 24 1011.6
20260830230120 99 0 3.0 12.0 0.00 0.00 0.00 23 1011.6
20260830224606 100 67 7.0 12.0 0.00 0.00 0.00 24 1011.8
20260830223104 101 94 1.0 9.0 0.00 0.00 0.00 23 1011.8
20260830221604 101 43 4.0 12.0 0.00 0.00 0.00 21 1012.0
20260830220107 101 0 0.0 8.0 0.00 0.00 0.00 21 1012.3
20260830214559 100 0 0.0 6.0 0.00 0.00 0.00 21 1012.3
20260830213105 101 34 5.0 11.0 0.00 0.00 0.00 22 1012.7
20260830211606 101 177 2.0 9.0 0.00 0.00 0.00 22 1012.8
20260830210107 100 119 7.0 12.0 0.00 0.00 0.00 23 1013.1
20260830204605 100 98 4.0 11.0 0.00 0.00 0.00 23 1013.4
20260830203107 100 9 6.0 14.0 0.00 0.00 0.00 24 1013.6
20260830201606 99 67 1.0 12.0 0.00 0.00 0.00 25 1013.9
20260830200100 99 205 2.0 9.0 0.00 0.00 0.00 24 1014.1
20260830194602 99 118 5.0 14.0 0.00 0.00 0.00 24 1014.4
20260830193105 99 135 3.0 10.0 0.00 0.00 0.00 25 1014.7
20260830191609 98 79 6.0 15.0 0.00 0.00 0.00 27 1014.8
20260830184600 97 83 6.0 15.0 0.00 0.00 0.00 28 1015.4
20260830183110 97 74 8.0 13.0 0.00 0.00 0.00 30 1015.8
20260830181559 97 84 6.0 12.0 0.00 0.00 0.00 29 1015.8
20260830180110 96 138 7.0 12.0 0.00 0.00 0.00 31 1016.1
20260830174616 96 0 1.0 15.0 0.00 0.00 0.00 31 1016.3
20260830173105 95 331 4.0 10.0 0.00 0.00 0.00 32 1016.4
20260830171607 94 69 4.0 11.0 0.00 0.00 0.00 33 1016.7
20260830170106 94 0 2.0 9.0 0.00 0.00 0.00 34 1016.7
20260830164605 93 53 4.0 9.0 0.00 0.00 0.00 34 1016.9
20260830163107 93 55 4.0 9.0 0.00 0.00 0.00 36 1016.8
20260830161606 93 89 3.0 7.0 0.00 0.00 0.00 35 1016.8
20260830160117 92 72 0.0 3.0 0.00 0.00 0.00 37 1016.8
20260830154605 91 63 0.0 6.0 0.00 0.00 0.00 37 1016.8
20260830153108 92 0 0.0 3.0 0.00 0.00 0.00 36 1016.8
20260830151607 91 0 1.0 4.0 0.00 0.00 0.00 37 1016.9
20260830150119 91 0 0.0 0.0 0.00 0.00 0.00 37 1016.8
20260830144606 90 0 0.0 1.0 0.00 0.00 0.00 39 1016.1
20260830143057 89 0 0.0 0.0 0.00 0.00 0.00 40 1016.2
20260830141606 86 0 0.0 3.0 0.00 0.00 0.00 43 1016.3
20260830140100 84 0 0.0 0.0 0.00 0.00 0.00 45 1016.7
20260830134607 81 0 0.0 0.0 0.00 0.00 0.00 48 1016.6
20260830133102 79 0 0.0 0.0 0.00 0.00 0.00 50 1016.6
20260830131604 77 0 0.0 3.0 0.00 0.00 0.00 51 1016.7
20260830130109 76 261 3.0 7.0 0.00 0.00 0.00 53 1016.5
20260830124605 75 285 4.0 7.0 0.00 0.00 0.00 53 1016.1
20260830123104 75 277 2.0 3.0 0.00 0.00 0.00 53 1016.1
20260830121607 76 281 2.0 3.0 0.00 0.00 0.00 53 1016.1
20260830120107 76 273 3.0 6.0 0.00 0.00 0.00 53 1015.9
20260830114638 75 268 2.0 3.0 0.00 0.00 0.00 56 1015.9
20260830113105 75 0 0.0 0.0 0.00 0.00 0.00 55 1015.9
20260830111600 75 0 0.0 0.0 0.00 0.00 0.00 54 1015.6
20260830110110 76 286 2.0 3.0 0.00 0.00 0.00 54 1015.6
20260830104600 76 0 0.0 3.0 0.00 0.00 0.00 54 1015.7
20260830103103 76 0 0.0 3.0 0.00 0.00 0.00 54 1015.6
20260830101606 76 0 0.0 2.0 0.00 0.00 0.00 54 1015.6
20260830100104 77 0 0.0 0.0 0.00 0.00 0.00 55 1015.5
20260830094556 76 217 0.0 4.0 0.00 0.00 0.00 53 1015.5
20260830093104 76 0 0.0 2.0 0.00 0.00 0.00 54 1015.5
20260830091607 78 0 1.0 4.0 0.00 0.00 0.00 52 1015.4
20260830090116 78 169 2.0 6.0 0.00 0.00 0.00 53 1015.4
20260830084607 78 194 0.0 0.0 0.00 0.00 0.00 53 1015.4
20260830083108 79 169 2.0 5.0 0.00 0.00 0.00 52 1015.5
20260830081605 79 136 4.0 8.0 0.00 0.00 0.00 52 1015.6
20260830080106 79 139 3.0 6.0 0.00 0.00 0.00 52 1015.7
20260830074606 79 132 2.0 7.0 0.00 0.00 0.00 51 1015.8
20260830073100 80 121 5.0 8.0 0.00 0.00 0.00 51 1015.8
20260830071558 80 131 4.0 7.0 0.00 0.00 0.00 50 1016.1
20260830070114 81 130 3.0 6.0 0.00 0.00 0.00 49 1016.1
20260830064603 82 132 4.0 8.0 0.00 0.00 0.00 49 1016.1
20260830063112 82 130 4.0 9.0 0.00 0.00 0.00 48 1016.3
20260830061600 83 140 4.0 8.0 0.00 0.00 0.00 47 1016.2
20260830060108 83 150 4.0 10.0 0.00 0.00 0.00 46 1016.3
20260830054605 84 143 8.0 11.0 0.00 0.00 0.00 46 1016.3
20260830053058 84 132 8.0 11.0 0.00 0.00 0.00 45 1016.2
20260830051614 85 128 7.0 12.0 0.00 0.00 0.00 44 1016.4
20260830050106 86 135 9.0 13.0 0.00 0.00 0.00 43 1016.4
20260830044604 86 149 10.0 15.0 0.00 0.00 0.00 42 1016.4
20260830043102 86 159 11.0 13.0 0.00 0.00 0.00 41 1016.3
20260830041703 87 115 8.0 15.0 0.00 0.00 0.00 40 1016.2
20260830040107 88 141 9.0 17.0 0.00 0.00 0.00 39 1016.3
20260830034618 88 138 10.0 15.0 0.00 0.00 0.00 38 1016.2
20260830033106 89 138 13.0 18.0 0.00 0.00 0.00 37 1016.0
20260830031600 89 151 11.0 16.0 0.00 0.00 0.00 36 1015.6
20260830024604 90 124 10.0 16.0 0.00 0.00 0.00 35 1015.0
20260830023106 90 132 9.0 13.0 0.00 0.00 0.00 32 1014.8
20260830021557 90 119 8.0 14.0 0.00 0.00 0.00 31 1014.8
20260830020111 91 115 9.0 14.0 0.00 0.00 0.00 30 1014.5
20260830014612 92 119 8.0 12.0 0.00 0.00 0.00 29 1014.3
20260830013110 93 130 11.0 15.0 0.00 0.00 0.00 28 1014.2
20260830011606 94 106 11.0 17.0 0.00 0.00 0.00 28 1014.1